EW0259 Weather Reports


time (UTC)temp
F
wind
direction
speed
knots
gust
knots
rain 1hr
in
rain 24hr
in
rain mn
in
humidity
%
barometer
mb
20240614105239 45 227 0.0 0.0 0.00 0.00 0.00 82 1022.9
20240614104739 45 227 0.0 0.0 0.00 0.00 0.00 81 1022.8
20240614104239 45 227 0.0 0.0 0.00 0.00 0.00 81 1022.9
20240614103742 45 227 0.0 0.0 0.00 0.00 0.00 81 1023.0
20240614103244 46 227 0.0 0.0 0.00 0.00 0.00 81 1022.9
20240614102733 46 227 0.9 0.0 0.00 0.00 0.00 80 1022.9
20240614102254 46 227 0.0 0.0 0.00 0.00 0.00 80 1022.9
20240614101735 46 227 0.0 0.0 0.00 0.00 0.00 80 1022.9
20240614101236 46 227 0.0 0.0 0.00 0.00 0.00 80 1022.8
20240614100735 46 227 0.0 0.0 0.00 0.00 0.00 80 1022.7
20240614100234 46 227 0.0 0.0 0.00 0.00 0.00 80 1022.7
20240614095746 46 227 0.0 0.0 0.00 0.00 0.00 80 1022.8
20240614095226 46 227 0.0 0.0 0.00 0.00 0.00 79 1022.7
20240614094726 46 227 0.0 0.0 0.00 0.00 0.00 79 1022.6
20240614094225 47 227 0.0 0.0 0.00 0.00 0.00 79 1022.6
20240614093726 47 227 0.0 0.0 0.00 0.00 0.00 78 1022.6
20240614093248 47 227 0.0 0.0 0.00 0.00 0.00 78 1022.6
20240614092739 47 227 0.0 0.0 0.00 0.00 0.00 78 1022.5
20240614092237 47 227 0.0 0.0 0.00 0.00 0.00 78 1022.6
20240614091740 47 227 0.0 0.0 0.00 0.00 0.00 78 1022.5
20240614091240 47 227 0.0 0.0 0.00 0.00 0.00 77 1022.5
20240614090740 47 227 0.0 0.0 0.00 0.00 0.00 77 1022.6
20240614090242 48 227 0.0 0.0 0.00 0.00 0.00 77 1022.5
20240614085731 48 227 0.0 0.0 0.00 0.00 0.00 76 1022.4
20240614085230 48 227 0.0 0.0 0.00 0.00 0.00 76 1022.4
20240614084728 48 227 0.0 0.0 0.00 0.00 0.00 76 1022.4
20240614084227 49 227 0.0 0.0 0.00 0.00 0.00 75 1022.3
20240614083746 49 227 0.0 0.0 0.00 0.00 0.00 75 1022.2
20240614083247 49 227 0.0 0.0 0.00 0.00 0.00 74 1022.0
20240614082737 49 227 0.0 0.0 0.00 0.00 0.00 73 1022.1
20240614082259 50 227 0.0 0.0 0.00 0.00 0.00 73 1022.1
20240614081800 50 227 0.0 0.0 0.00 0.00 0.00 73 1022.0
20240614081238 50 227 0.0 0.0 0.00 0.00 0.00 72 1022.0
20240614080737 51 227 0.0 0.0 0.00 0.00 0.00 71 1022.0
20240614080300 51 227 0.0 0.0 0.00 0.00 0.00 70 1022.0
20240614075728 52 227 0.0 0.0 0.00 0.00 0.00 69 1022.0
20240614075246 52 227 0.0 0.0 0.00 0.00 0.00 68 1022.0
20240614074725 52 227 0.0 0.0 0.00 0.00 0.00 68 1021.9
20240614074231 53 227 0.0 0.0 0.00 0.00 0.00 67 1021.9
20240614073731 53 227 0.0 0.0 0.00 0.00 0.00 66 1021.8
20240614073313 53 227 0.0 0.0 0.00 0.00 0.00 65 1021.9
20240614072740 54 227 0.0 0.0 0.00 0.00 0.00 64 1021.8
20240614072241 54 227 0.0 0.0 0.00 0.00 0.00 63 1021.8
20240614071800 54 227 0.0 0.0 0.00 0.00 0.00 63 1021.7
20240614071236 55 227 0.0 0.0 0.00 0.00 0.00 62 1021.7
20240614070735 55 97 0.0 0.0 0.00 0.00 0.00 61 1021.6
20240614070247 55 8 0.0 0.0 0.00 0.00 0.00 61 1021.6
20240614065758 55 0 0.0 0.0 0.00 0.00 0.00 60 1021.6
20240614065238 56 215 1.7 0.0 0.00 0.00 0.00 60 1021.5
20240614064736 56 355 0.9 0.0 0.00 0.00 0.00 59 1021.5
20240614064235 56 243 1.7 0.0 0.00 0.00 0.00 58 1021.4
20240614063734 56 297 0.9 0.0 0.00 0.00 0.00 57 1021.4
20240614063254 56 157 0.9 0.0 0.00 0.00 0.00 57 1021.4
20240614062742 56 145 0.0 0.0 0.00 0.00 0.00 56 1021.2
20240614062241 56 117 0.0 0.0 0.00 0.00 0.00 55 1021.2
20240614061742 56 76 0.9 0.0 0.00 0.00 0.00 55 1021.1
20240614061226 56 143 0.0 0.0 0.00 0.00 0.00 54 1021.0
20240614060729 57 210 1.7 0.0 0.00 0.00 0.00 54 1020.9
20240614060251 57 210 0.9 0.0 0.00 0.00 0.00 53 1020.8
20240614055741 57 44 0.0 0.0 0.00 0.00 0.00 53 1020.7
20240614055242 57 285 0.9 0.0 0.00 0.00 0.00 53 1020.7
20240614054741 57 340 0.0 0.0 0.00 0.00 0.00 53 1020.7
20240614054241 58 142 0.9 0.0 0.00 0.00 0.00 53 1020.6
20240614053801 58 130 0.9 0.0 0.00 0.00 0.00 54 1020.5
20240614053242 58 130 0.0 0.0 0.00 0.00 0.00 54 1020.5
20240614052752 58 101 1.7 0.0 0.00 0.00 0.00 53 1020.5
20240614052231 59 247 0.9 0.0 0.00 0.00 0.00 53 1020.5
20240614051750 59 275 1.7 0.0 0.00 0.00 0.00 52 1020.4
20240614051227 59 221 0.9 0.0 0.00 0.00 0.00 52 1020.4
20240614050727 59 240 2.6 0.0 0.00 0.00 0.00 52 1020.3
20240614050249 60 268 0.9 0.0 0.00 0.00 0.00 51 1020.3
20240614045759 60 262 3.5 0.0 0.00 0.00 0.00 52 1020.3
20240614045238 60 254 0.0 0.0 0.00 0.00 0.00 51 1020.2
20240614044759 60 227 0.9 0.0 0.00 0.00 0.00 52 1020.2
20240614044239 60 227 0.9 0.0 0.00 0.00 0.00 53 1020.0
20240614043759 60 327 0.0 0.0 0.00 0.00 0.00 53 1019.8
20240614043238 60 283 0.9 0.0 0.00 0.00 0.00 53 1019.8
20240614042732 61 280 2.6 0.0 0.00 0.00 0.00 52 1019.7
20240614042233 61 68 0.9 0.0 0.00 0.00 0.00 53 1019.6
20240614041753 61 150 1.7 0.0 0.00 0.00 0.00 51 1019.5
20240614041230 62 267 0.0 0.0 0.00 0.00 0.00 51 1019.5
20240614040729 62 281 3.5 0.0 0.00 0.00 0.00 51 1019.5
20240614040251 62 74 0.9 0.0 0.00 0.00 0.00 50 1019.5
20240614035800 63 306 0.9 0.0 0.00 0.00 0.00 51 1019.4
20240614035238 63 251 0.9 0.0 0.00 0.00 0.00 50 1019.5
20240614034800 64 282 4.3 0.0 0.00 0.00 0.00 50 1019.4
20240614034237 64 241 0.0 0.0 0.00 0.00 0.00 50 1019.6
20240614033736 64 242 1.7 0.0 0.00 0.00 0.00 50 1019.3
20240614033237 64 240 0.0 0.0 0.00 0.00 0.00 50 1019.3
20240614032749 64 305 2.6 0.0 0.00 0.00 0.00 49 1019.5
20240614032228 64 100 0.0 0.0 0.00 0.00 0.00 51 1019.4
20240614031726 64 133 2.6 0.0 0.00 0.00 0.00 53 1019.5
20240614031249 65 268 2.6 0.0 0.00 0.00 0.00 53 1019.4
20240614030748 65 314 0.9 0.0 0.00 0.00 0.00 53 1019.4
20240614030251 65 276 0.0 0.0 0.00 0.00 0.00 54 1019.5
20240614025741 65 276 0.0 0.0 0.00 0.00 0.00 53 1019.4
20240614025241 65 276 0.0 0.0 0.00 0.00 0.00 53 1019.4
20240614024725 65 276 0.0 0.0 0.00 0.00 0.00 53 1019.5
20240614024226 65 219 1.7 0.0 0.00 0.00 0.00 52 1019.5
20240614023728 65 273 0.0 0.0 0.00 0.00 0.00 51 1019.5
20240614023249 66 296 0.9 0.0 0.00 0.00 0.00 51 1019.4
20240614022740 66 269 4.3 0.0 0.00 0.00 0.00 49 1019.3
20240614022239 67 94 0.9 0.0 0.00 0.00 0.00 48 1019.4
20240614021738 67 94 0.0 0.0 0.00 0.00 0.00 47 1019.5
20240614021258 67 357 0.0 0.0 0.00 0.00 0.00 46 1019.4
20240614020737 67 357 1.7 0.0 0.00 0.00 0.00 45 1019.5
20240614020236 68 245 0.0 0.0 0.00 0.00 0.00 44 1019.5
20240614015747 67 245 0.0 0.0 0.00 0.00 0.00 43 1019.4
20240614015246 68 182 1.7 0.0 0.00 0.00 0.00 42 1019.4
20240614014744 68 51 0.0 0.0 0.00 0.00 0.00 42 1019.4
20240614014304 67 174 3.5 0.0 0.00 0.00 0.00 42 1019.3
20240614013802 67 227 0.9 0.0 0.00 0.00 0.00 42 1019.3
20240614013241 67 227 0.9 0.0 0.00 0.00 0.00 43 1019.4
20240614012732 67 279 1.7 0.0 0.00 0.00 0.00 42 1019.3
20240614012233 67 348 0.9 0.0 0.00 0.00 0.00 43 1019.4
20240614011752 67 313 1.7 0.0 0.00 0.00 0.00 42 1019.4
20240614011231 67 222 2.6 0.0 0.00 0.00 0.00 43 1019.4
20240614010736 67 212 0.9 0.0 0.00 0.00 0.00 43 1019.4
20240614010258 67 212 0.9 0.0 0.00 0.00 0.00 43 1019.5
20240614005747 67 224 0.0 0.0 0.00 0.00 0.00 44 1019.4
20240614005223 67 267 0.0 0.0 0.00 0.00 0.00 44 1019.4
20240614004744 67 284 2.6 0.0 0.00 0.00 0.00 45 1019.5
20240614004242 67 270 0.9 0.0 0.00 0.00 0.00 42 1019.4
20240614003740 67 248 0.0 0.0 0.00 0.00 0.00 41 1019.3
20240614003240 67 284 0.0 0.0 0.00 0.00 0.00 41 1019.2
20240614002730 67 240 1.7 0.0 0.00 0.00 0.00 41 1019.3
20240614002231 67 81 0.0 0.0 0.00 0.00 0.00 42 1019.3
20240614001731 67 258 2.6 0.0 0.00 0.00 0.00 40 1019.4
20240614001253 67 271 2.6 0.0 0.00 0.00 0.00 41 1019.4
20240614000731 67 110 1.7 0.0 0.00 0.00 0.00 42 1019.4
20240614000253 67 206 0.0 0.0 0.00 0.00 0.00 42 1019.5
20240613235804 67 193 2.6 0.0 0.00 0.00 0.00 43 1019.4
20240613235223 67 295 2.6 0.0 0.00 0.00 0.00 44 1019.5
20240613234725 66 95 1.7 0.0 0.00 0.00 0.00 44 1019.5
20240613234228 66 272 1.7 0.0 0.00 0.00 0.00 42 1019.5
20240613233727 66 261 1.7 0.0 0.00 0.00 0.00 43 1019.6
20240613233247 66 243 0.0 0.0 0.00 0.00 0.00 43 1019.4
20240613232737 66 282 3.5 0.0 0.00 0.00 0.00 43 1019.4
20240613232237 67 71 0.0 0.0 0.00 0.00 0.00 43 1019.5
20240613231737 67 249 2.6 0.0 0.00 0.00 0.00 41 1019.4
20240613231236 67 354 1.7 0.0 0.00 0.00 0.00 41 1019.4
20240613230736 66 353 3.5 0.0 0.00 0.00 0.00 41 1019.7
20240613230235 66 242 0.9 0.0 0.00 0.00 0.00 40 1019.6
20240613225725 66 238 1.7 0.0 0.00 0.00 0.00 40 1019.6
20240613225307 66 240 3.5 0.0 0.00 0.00 0.00 41 1019.5
20240613224744 66 343 0.9 0.0 0.00 0.00 0.00 42 1019.5
20240613224243 66 278 0.0 0.0 0.00 0.00 0.00 40 1019.4
20240613223742 66 235 0.0 0.0 0.00 0.00 0.00 39 1019.4
20240613223244 66 220 0.0 0.0 0.00 0.00 0.00 40 1019.5
20240613222733 66 227 1.7 0.0 0.00 0.00 0.00 42 1019.6
20240613222238 66 276 0.0 0.0 0.00 0.00 0.00 42 1019.5
20240613221738 66 258 1.7 0.0 0.00 0.00 0.00 42 1019.7
20240613221238 66 213 0.9 0.0 0.00 0.00 0.00 42 1019.8
20240613220736 66 320 1.7 0.0 0.00 0.00 0.00 43 1019.6
20240613220238 66 314 2.6 0.0 0.00 0.00 0.00 46 1019.6
20240613215728 66 355 1.7 0.0 0.00 0.00 0.00 44 1019.7
20240613215227 66 21 0.0 0.0 0.00 0.00 0.00 44 1019.6
20240613214744 66 242 4.3 0.0 0.00 0.00 0.00 45 1019.7
20240613214305 66 342 2.6 0.0 0.00 0.00 0.00 46 1019.7
20240613213742 65 182 0.9 0.0 0.00 0.00 0.00 46 1019.8
20240613213242 65 219 0.0 0.0 0.00 0.00 0.00 46 1019.8
20240613212753 66 270 0.9 0.0 0.00 0.00 0.00 46 1020.0
20240613212252 65 107 0.0 0.0 0.00 0.00 0.00 46 1019.9
20240613211732 66 336 2.6 0.0 0.00 0.00 0.00 47 1020.0
20240613211232 65 323 0.9 0.0 0.00 0.00 0.00 50 1020.1
20240613210730 65 285 1.7 0.0 0.00 0.00 0.00 51 1020.2
20240613210311 64 305 0.9 0.0 0.00 0.00 0.00 50 1020.2
20240613205801 64 342 1.7 0.0 0.00 0.00 0.00 51 1020.2
20240613205240 64 240 1.7 0.0 0.00 0.00 0.00 50 1020.3
20240613204800 65 303 1.7 0.0 0.00 0.00 0.00 50 1020.3
20240613204238 64 314 2.6 0.0 0.00 0.00 0.00 51 1020.2
20240613203743 64 302 0.9 0.0 0.00 0.00 0.00 51 1020.3
20240613203246 65 353 3.5 0.0 0.00 0.00 0.00 51 1020.4
20240613202733 65 83 1.7 0.0 0.00 0.00 0.00 51 1020.4
20240613202231 65 20 1.7 0.0 0.00 0.00 0.00 51 1020.4
20240613201730 65 3 2.6 0.0 0.00 0.00 0.00 53 1020.3
20240613201249 65 297 1.7 0.0 0.00 0.00 0.00 53 1020.4
20240613200725 64 3 3.5 0.0 0.00 0.00 0.00 53 1020.5
20240613200246 64 293 2.6 0.0 0.00 0.00 0.00 53 1020.5
20240613195736 64 249 2.6 0.0 0.00 0.00 0.00 53 1020.6
20240613195254 64 255 1.7 0.0 0.00 0.00 0.00 53 1020.6
20240613194736 64 338 7.0 0.0 0.00 0.00 0.00 54 1020.7
20240613194235 64 17 4.3 0.0 0.00 0.00 0.00 53 1020.7
20240613193736 63 350 2.6 0.0 0.00 0.00 0.00 54 1020.7
20240613193237 63 231 5.2 0.0 0.00 0.00 0.00 53 1020.8
20240613192748 63 302 1.7 0.0 0.00 0.00 0.00 54 1020.8
20240613192227 63 311 1.7 0.0 0.00 0.00 0.00 54 1020.8
20240613191727 63 243 0.9 0.0 0.00 0.00 0.00 53 1020.8
20240613191230 64 238 2.6 0.0 0.00 0.00 0.00 55 1020.8
20240613190752 64 337 4.3 0.0 0.00 0.00 0.00 55 1020.9
20240613190252 63 355 0.9 0.0 0.00 0.00 0.00 56 1020.9
20240613185742 63 315 0.9 0.0 0.00 0.00 0.00 55 1020.9
20240613185242 64 20 1.7 0.0 0.00 0.00 0.00 56 1020.9
20240613184740 63 0 0.9 0.0 0.00 0.00 0.00 56 1021.0
20240613184240 63 319 3.5 0.0 0.00 0.00 0.00 58 1021.0
20240613183800 63 0 0.9 0.0 0.00 0.00 0.00 58 1020.9
20240613183239 62 229 0.9 0.0 0.00 0.00 0.00 60 1020.9
20240613182729 62 350 5.2 0.0 0.00 0.00 0.00 58 1020.9
20240613182252 62 239 4.3 0.0 0.00 0.00 0.00 58 1021.0
20240613181731 62 335 2.6 0.0 0.00 0.00 0.00 58 1021.1
20240613181231 62 286 1.7 0.0 0.00 0.00 0.00 58 1021.2
20240613180732 61 0 0.9 0.0 0.00 0.00 0.00 59 1021.2
20240613180254 61 319 1.7 0.0 0.00 0.00 0.00 58 1021.2
20240613175742 61 6 1.7 0.0 0.00 0.00 0.00 60 1021.2
20240613175241 60 352 0.9 0.0 0.00 0.00 0.00 60 1021.1
20240613174739 60 300 1.7 0.0 0.00 0.00 0.00 60 1021.2
20240613174243 60 326 2.6 0.0 0.00 0.00 0.00 60 1021.3
20240613173741 60 0 2.6 0.0 0.00 0.00 0.00 61 1021.4
20240613173243 59 286 6.1 0.0 0.00 0.00 0.00 61 1021.4
20240613172732 59 359 1.7 0.0 0.00 0.00 0.00 62 1021.4
20240613172232 59 312 2.6 0.0 0.00 0.00 0.00 62 1021.5
20240613171730 59 314 2.6 0.0 0.00 0.00 0.00 62 1021.5
20240613171250 59 268 3.5 0.0 0.00 0.00 0.00 62 1021.6
20240613170729 58 222 2.6 0.0 0.00 0.00 0.00 62 1021.6
20240613170311 58 245 5.2 0.0 0.00 0.00 0.00 62 1021.6
20240613165740 58 348 1.7 0.0 0.00 0.00 0.00 63 1021.7
20240613165240 58 273 0.9 0.0 0.00 0.00 0.00 63 1021.7
20240613164741 58 7 0.0 0.0 0.00 0.00 0.00 63 1021.7
20240613164242 58 347 0.9 0.0 0.00 0.00 0.00 65 1021.7
20240613163741 58 226 2.6 0.0 0.00 0.00 0.00 64 1021.8
20240613163242 57 327 2.6 0.0 0.00 0.00 0.00 65 1021.7
20240613162752 57 313 1.7 0.0 0.00 0.00 0.00 64 1021.6
20240613162231 57 320 3.5 0.0 0.00 0.00 0.00 65 1021.6
20240613161735 57 232 1.7 0.0 0.00 0.00 0.00 66 1021.6
20240613161233 57 313 1.7 0.0 0.00 0.00 0.00 66 1021.7
20240613160755 56 230 1.7 0.0 0.00 0.00 0.00 66 1021.7
20240613160254 57 354 2.6 0.0 0.00 0.00 0.00 66 1021.7
20240613155723 56 33 0.0 0.0 0.00 0.00 0.00 67 1021.6
20240613155225 55 335 0.9 0.0 0.00 0.00 0.00 67 1021.7
20240613154747 55 318 1.7 0.0 0.00 0.00 0.00 67 1021.7
20240613154306 55 351 4.3 0.0 0.00 0.00 0.00 68 1021.8
20240613153804 55 310 0.9 0.0 0.00 0.00 0.00 68 1021.7
20240613153306 55 320 1.7 0.0 0.00 0.00 0.00 68 1021.9
20240613152756 55 292 1.7 0.0 0.00 0.00 0.00 68 1021.9
20240613152235 55 241 1.7 0.0 0.00 0.00 0.00 68 1021.9
20240613151736 55 269 0.0 0.0 0.00 0.00 0.00 68 1021.9
20240613151234 55 257 0.0 0.0 0.00 0.00 0.00 69 1021.9
20240613150733 55 352 0.0 0.0 0.00 0.00 0.00 69 1021.9
20240613150254 54 353 0.0 0.0 0.00 0.00 0.00 70 1021.9
20240613145723 54 77 0.0 0.0 0.00 0.00 0.00 72 1021.9
20240613145306 54 336 0.0 0.0 0.00 0.00 0.00 70 1021.8
20240613144744 54 53 0.0 0.0 0.00 0.00 0.00 71 1021.8
20240613144242 54 53 0.0 0.0 0.00 0.00 0.00 72 1021.8
20240613143742 53 53 0.0 0.0 0.00 0.00 0.00 73 1021.8
20240613143243 53 328 0.0 0.0 0.00 0.00 0.00 74 1021.8
20240613142736 52 328 0.0 0.0 0.00 0.00 0.00 73 1021.9
20240613142238 52 343 0.0 0.0 0.00 0.00 0.00 73 1021.8
20240613141737 52 343 0.0 0.0 0.00 0.00 0.00 74 1021.8
20240613141258 52 343 0.0 0.0 0.00 0.00 0.00 73 1021.7
20240613140737 53 343 0.0 0.0 0.00 0.00 0.00 72 1021.6
20240613140237 53 343 0.0 0.0 0.00 0.00 0.00 75 1021.8
20240613135748 52 342 0.0 0.0 0.00 0.00 0.00 76 1021.8
20240613135247 52 342 0.0 0.0 0.00 0.00 0.00 79 1022.0
20240613134727 51 342 0.0 0.0 0.00 0.00 0.00 81 1022.1
20240613134227 50 343 0.0 0.0 0.00 0.00 0.00 82 1022.2
20240613133806 49 342 0.0 0.0 0.00 0.00 0.00 83 1022.2
20240613133306 48 342 0.9 0.0 0.00 0.00 0.00 85 1022.2
20240613132735 47 343 0.0 0.0 0.00 0.00 0.00 84 1022.2